Location: Unspecified
(51.2667°N, 0.0000°E)
Time: 20:59:02
(UTC+00:00)

AO-85 - Visible Passes

Search period start: 19 August 2019 00:00
Search period end: 29 August 2019 00:00
Orbit: 506 x 778 km, 64.8° (Epoch: 14 August)

Date Brightness Start Highest point End Pass type
(mag) Time Alt. Az. Time Alt. Az. Time Alt. Az.
19 Aug ? 01:21:27 26° SE 01:21:57 26° ESE 01:26:03 10° ENE visible
19 Aug ? 02:59:04 25° WSW 03:02:06 68° NW 03:06:56 10° NE visible
20 Aug ? 01:45:31 44° SSE 01:46:24 49° ESE 01:51:08 10° NE visible
20 Aug ? 03:23:07 15° WSW 03:26:57 40° NW 03:31:29 10° NNE visible
21 Aug ? 00:31:57 18° E 00:31:57 18° E 00:34:33 10° ENE visible
21 Aug ? 02:09:33 48° SW 02:11:00 89° WNW 02:15:53 10° NE visible
21 Aug ? 03:47:43 10° W 03:52:00 27° NNW 03:56:01 10° NNE visible
22 Aug ? 00:55:57 35° ESE 00:55:57 35° ESE 00:59:56 10° NE visible
22 Aug ? 02:33:32 30° WSW 02:35:47 51° NW 02:40:29 10° NE visible
22 Aug ? 04:13:34 10° WNW 04:17:11 20° NNW 04:20:38 10° NNE visible
22 Aug ? 23:42:19 11° E 23:42:19 11° E 23:42:41 10° E visible
23 Aug ? 01:19:54 69° SE 01:19:57 69° SE 01:24:49 10° NE visible
23 Aug ? 02:57:30 16° W 03:00:45 32° NNW 03:05:01 10° NNE visible
24 Aug ? 00:06:14 22° E 00:06:14 22° E 00:08:38 10° ENE visible
24 Aug ? 01:43:50 56° W 01:44:40 66° NW 01:49:28 10° NE visible
24 Aug ? 03:21:56 10° WNW 03:25:52 22° NNW 03:29:34 10° NNE visible
25 Aug ? 00:30:09 41° E 00:30:09 41° E 00:33:41 10° NE visible
25 Aug ? 02:07:44 29° W 02:09:32 39° NW 02:14:01 10° NNE visible
25 Aug ? 03:47:50 10° WNW 03:51:07 18° NNW 03:54:15 10° NNE visible
25 Aug ? 23:16:26 13° ENE 23:16:26 13° ENE 23:17:09 10° ENE visible
26 Aug ? 00:54:01 74° NNE 00:54:01 74° NNE 00:58:26 10° NE visible
26 Aug ? 02:31:36 16° WNW 02:34:34 26° NNW 02:38:33 10° NNE visible
26 Aug ? 04:13:37 10° NW 04:16:28 15° N 04:19:12 10° NNE visible
26 Aug ? 23:40:17 24° ENE 23:40:17 24° ENE 23:42:29 10° NE visible
27 Aug ? 01:17:52 48° WNW 01:18:21 50° NW 01:23:01 10° NE visible
27 Aug ? 02:56:12 10° WNW 02:59:46 19° NNW 03:03:09 10° NNE visible
28 Aug ? 00:04:06 42° ENE 00:04:06 42° ENE 00:07:21 10° NE visible
28 Aug ? 01:41:41 25° WNW 01:43:19 31° NNW 01:47:32 10° NNE visible
28 Aug ? 03:22:04 10° NW 03:25:04 16° N 03:27:56 10° NNE visible
28 Aug ? 22:50:18 14° ENE 22:50:18 14° ENE 22:51:11 10° ENE visible
